Cloud_Cover
5 6 23 34 10 10 8 28 72 100 100 100 98 84 75 50 99 100 100 100 100 100
0 1 0 2 0 15 0 5 21 100 100 100 100 100 100 88 100 100 100 100 100 100
0 0 0 0 2 52 3 43 100 100 100 98 100 100 100 100 100 100 100 100 100 100
0 0 0 14 100 100 100 100 100 100 100 100 100 100 100 100 100 100 100 100 100 100
0 0 2 99 100 100 100 100 100 100 100 100 100 100 100 100 100 100 100 100 100 100
1 1 3 39 75 81 100 100 100 100 100 100 100 100 100 100 100 100 100 100 100 100
36 54 35 5 56 74 100 100 100 100 100 100 100 100 100 100 100 100 100 100 100 100
5 38 43 21 29 34 34 88 100 92 100 100 100 100 100 100 100 100 100 100 100 100
58 27 95 69 56 90 64 10 24 100 100 100 100 100 100 100 100 100 100 100 100 100
100 68 99 100 100 100 96 98 100 100 100 100 100 100 100 100 100 100 100 100 100 100
78 79 100 100 100 100 100 100 100 100 100 100 100 100 100 100 100 100 100 100 100 100
99 99 100 100 100 100 100 100 100 100 100 100 100 100 100 100 100 100 100 100 100 100
100 100 100 100 100 100 100 100 100 100 100 100 100 100 100 100 100 100 100 100 100 100
100 100 99 100 100 100 100 100 100 100 100 100 100 100 100 100 100 100 100 100 100 100